• Join FlightAware (Why Join?)
  • Login
  • US Flag GB Flag 
12:12 EST


 

Airport Tracker/Info


-or-


 

Live Flight TrackerFlight Track Log ✈ FSR411 ✈ 17-Jun-2013 ✈ KCMI - KAIZ

Flight Track Log - Related Links

Times and Time Zones

All times are in EDT time to prevent confusion due to time zone crossing. See the FSR411 flight status page for this flight to view local times or setup timezone preferences in your user account.

Time Position Orientation Groundspeed Altitude Reporting Facility
EDT Latitude Longitude Course Direction KTS MPH feet Rate Location/Type
21:54 40.0369 -88.3575 241° Southwest 197 227 4,200  Level Kansas City Center
21:55 40.0056 -88.4242 238° Southwest 215 247 7,600 3,171 Climbing Kansas City Center
21:56 39.9708 -88.5011 240° Southwest 223 257 10,700 3,366 Climbing Kansas City Center
21:57 39.9192 -88.6186 240° Southwest 296 341 14,500 3,532 Climbing Kansas City Center
21:58 39.8697 -88.7314 240° Southwest 345 397 18,000 3,463 Climbing Kansas City Center
21:59 39.8183 -88.8481 240° Southwest 364 419 21,600 2,878 Climbing Kansas City Center
22:00 39.5885 -89.2880 241° Southwest  Level FlightAware Approximate
22:00 39.7717 -88.9547 240° Southwest 348 400 23,900  Level Kansas City Center
22:01 39.7231 -89.0664 241° Southwest 350 403 24,000 49 Climbing Kansas City Center
22:02 39.6714 -89.1808 240° Southwest 361 415 24,000  Level Kansas City Center
22:03 39.6206 -89.2972 240° Southwest 361 415 24,000  Level Kansas City Center
22:04 39.5711 -89.4083 240° Southwest 359 413 24,000  Level Kansas City Center
22:06 39.5200 -89.5214 240° Southwest 362 417 24,000  Level Kansas City Center
22:07 39.4703 -89.6322 240° Southwest 360 414 24,000  Level Kansas City Center
22:08 39.4100 -89.7667 240° Southwest 361 415 24,000  Level Kansas City Center
22:09 39.3586 -89.8792 239° Southwest 362 417 24,000  Level Kansas City Center
22:10 39.3047 -89.9958 239° Southwest 370 426 24,000  Level Kansas City Center
22:11 39.2500 -90.1175 240° Southwest 383 441 24,000  Level Kansas City Center
22:12 39.1944 -90.2394 240° Southwest 393 452 24,000  Level Kansas City Center
22:13 39.1394 -90.3594 239° Southwest 394 453 24,000  Level Kansas City Center
22:14 39.0867 -90.4753 240° Southwest 385 443 24,000  Level Kansas City Center
22:15 39.0342 -90.5883 239° Southwest 376 433 24,000  Level Kansas City Center
22:16 38.9808 -90.7264 244° Southwest 365 420 24,000  Level Kansas City Center
22:17 38.9553 -90.8519 255° West 366 421 24,000  Level Kansas City Center
22:18 38.9297 -90.9769 255° West 365 420 24,000  Level Kansas City Center
22:19 38.9017 -91.1058 254° West 372 428 24,000 -195 Level Kansas City Center
22:20 38.8731 -91.2333 254° West 375 432 23,600 -1,463 Descending Kansas City Center
22:21 38.8433 -91.3586 253° West 371 427 21,000 -2,557 Descending Kansas City Center
22:22 38.8100 -91.4872 252° West 375 432 18,400 -2,780 Descending Kansas City Center
22:23 38.7683 -91.6414 251° West 379 436 15,300 -2,732 Descending Kansas City Center
22:24 38.7286 -91.7742 249° West 388 447 12,800 -2,164 Descending Kansas City Center
22:25 38.6689 -91.8831 235° Southwest 381 438 10,900 -1,672 Descending Kansas City Center
22:26 38.6072 -91.9719 228° Southwest 359 413 9,400 -1,463 Descending Kansas City Center
22:27 38.5414 -92.0489 222° Southwest 338 389 7,900 -1,366 Descending Kansas City Center
22:28 38.4781 -92.1244 223° Southwest 323 372 6,600 -1,328 Descending Kansas City Center
22:29 38.4153 -92.2011 224° Southwest 317 365 5,200 -1,317 Descending Kansas City Center
22:30 38.3589 -92.2717 224° Southwest 299 344 3,900 -1,122 Descending Kansas City Center
22:31 38.3042 -92.3383 224° Southwest 281 323 2,900 -492 Descending Kansas City Center
22:32 38.2417 -92.4103 222° Southwest 261 300 2,900  Level Kansas City Center
22:33 38.1917 -92.4569 216° Southwest 241 277 2,900 -439 Level Kansas City Center
22:34 38.1522 -92.4947 217° Southwest 205 236 2,000 -787 Descending Kansas City Center
22:35 38.1194 -92.5250 216° Southwest 170 196 1,300 -537 Descending Kansas City Center
22:36 38.0881 -92.5567 218° Southwest 154 177 900 -387 Descending Kansas City Center
22:38 38.0960 -92.5495 90° East  Level Estimated
22:45 38.0960 -92.5495 90° East  Level Estimated
22:46 38.0960 -92.5495 90° East  Level Estimated
22:47 38.0960 -92.5495 90° East  Level Estimated